View from above orbital plane
|
View from above satellite
|
Ground track
|
The orbit data is extracted from the following two-line orbital elements,
1 23180U 94041B 22146.20950167 .00000050 00000-0 34580-4 0 9996
2 23180 82.9488 28.5695 0028280 203.8499 270.7781 13.78045091401358
Epoch (UTC): | 26 May 2022 05:01:40 |
Eccentricity: | 0.0028280 |
inclination: | 82.9488° |
perigee height: | 950 km |
apogee height: | 991 km |
right ascension of ascending node: | 28.5695° |
argument of perigee: | 203.8499° |
revolutions per day: | 13.78045091 |
mean anomaly at epoch: | 270.7781° |
orbit number at epoch: | 40135 |
The dashed part of the orbit path shows where the satellite is in the earth's shadow,
|
|